ARG1897 SAWH-SAWC

Flight info

Callsign ARG1897
Flight time 1h 8m
Altitude 30000
Route GRA2A GRA UW42 GAL UW52 DEVIS DEVIS2Q
Aircraft B738/M-SDE2E3FGHIJ1LORVWXY/LB1

Departure

Time 2026-04-16 14:55
Airport Ushuaia - Malvinas Argentinas International Airport (SAWH)

Arrival

Time 2026-04-16 16:03
Airport El Calafate - Commander Armando Tola International Airport (SAWC)
Time Latitude Longitude Altitude Speed Heading
2026-04-16 14:20 -54.84028 -68.31176 85 ft 0 kts 349°
2026-04-16 14:45 -54.84037 -68.31173 87 ft 4 kts 351°
2026-04-16 14:45 -54.84063 -68.31173 82 ft 4 kts 15°
2026-04-16 14:45 -54.84085 -68.31181 85 ft 4 kts 332°
2026-04-16 14:46 -54.84094 -68.31156 86 ft 2 kts 268°
2026-04-16 14:46 -54.84093 -68.31116 82 ft 3 kts 268°
2026-04-16 14:46 -54.84093 -68.31110 82 ft 0 kts 268°
2026-04-16 14:47 -54.84093 -68.31123 82 ft 4 kts 268°
2026-04-16 14:48 -54.84095 -68.31200 82 ft 7 kts 267°
2026-04-16 14:48 -54.84096 -68.31238 82 ft 0 kts 267°
2026-04-16 14:48 -54.84096 -68.31244 82 ft 2 kts 267°
2026-04-16 14:49 -54.84103 -68.31291 82 ft 6 kts 244°
2026-04-16 14:49 -54.84143 -68.31331 85 ft 7 kts 183°
2026-04-16 14:49 -54.84191 -68.31327 82 ft 7 kts 176°
2026-04-16 14:49 -54.84237 -68.31322 86 ft 6 kts 177°
2026-04-16 14:50 -54.84280 -68.31319 86 ft 6 kts 177°
2026-04-16 14:50 -54.84303 -68.31317 82 ft 1 kts 176°
2026-04-16 14:51 -54.84326 -68.31314 87 ft 8 kts 176°
2026-04-16 14:53 -54.84414 -68.31715 82 ft 0 kts 87°
2026-04-16 14:54 -54.84413 -68.31693 87 ft 12 kts 87°
2026-04-16 14:54 -54.84390 -68.31098 85 ft 87 kts 86°
2026-04-16 14:54 -54.84332 -68.29650 85 ft 150 kts 85°
2026-04-16 14:55 -54.84262 -68.27642 490 ft 172 kts 86°
2026-04-16 14:55 -54.84227 -68.25613 1528 ft 165 kts 97°
2026-04-16 14:55 -54.84551 -68.23677 2150 ft 180 kts 105°
2026-04-16 14:55 -54.84960 -68.21422 2412 ft 208 kts 104°
2026-04-16 14:56 -54.85415 -68.18868 2590 ft 234 kts 103°
2026-04-16 14:56 -54.85915 -68.16056 2873 ft 256 kts 104°
2026-04-16 14:56 -54.86457 -68.12984 3183 ft 278 kts 104°
2026-04-16 14:56 -54.87035 -68.09721 3933 ft 284 kts 104°
2026-04-16 14:57 -54.87617 -68.06445 4869 ft 284 kts 105°
2026-04-16 14:57 -54.88200 -68.03140 5734 ft 287 kts 105°
2026-04-16 14:57 -54.88782 -67.99840 6566 ft 290 kts 105°
2026-04-16 14:57 -54.89378 -67.96443 7352 ft 296 kts 104°
2026-04-16 14:58 -54.89982 -67.92977 8111 ft 302 kts 104°
2026-04-16 14:58 -54.90739 -67.85834 9565 ft 305 kts 77°
2026-04-16 14:58 -54.90041 -67.82284 9789 ft 319 kts 54°
2026-04-16 14:59 -54.88595 -67.79349 9990 ft 331 kts 32°
2026-04-16 14:59 -54.86623 -67.77175 10536 ft 337 kts 26°
2026-04-16 14:59 -54.84543 -67.75320 11287 ft 333 kts 13°
2026-04-16 14:59 -54.82290 -67.74670 12123 ft 325 kts 358°
2026-04-16 15:00 -54.80057 -67.74603 12961 ft 323 kts 355°
2026-04-16 15:00 -54.77796 -67.74625 13739 ft 323 kts 354°
2026-04-16 15:00 -54.75530 -67.74668 14462 ft 326 kts 354°
2026-04-16 15:00 -54.73289 -67.74705 15214 ft 325 kts 354°
2026-04-16 15:01 -54.71025 -67.74730 15939 ft 327 kts 354°
2026-04-16 15:01 -54.68721 -67.74749 16579 ft 331 kts 354°
2026-04-16 15:01 -54.66411 -67.74758 17177 ft 331 kts 354°
2026-04-16 15:01 -54.64122 -67.74760 17791 ft 333 kts 354°
2026-04-16 15:02 -54.61795 -67.74759 18434 ft 334 kts 354°
2026-04-16 15:02 -54.59453 -67.74757 19051 ft 336 kts 354°
2026-04-16 15:02 -54.57099 -67.74754 19640 ft 338 kts 354°
2026-04-16 15:02 -54.54761 -67.74750 20178 ft 340 kts 354°
2026-04-16 15:03 -54.52375 -67.74746 20704 ft 343 kts 354°
2026-04-16 15:03 -54.49985 -67.74742 21253 ft 344 kts 354°
2026-04-16 15:03 -54.47576 -67.74737 21780 ft 346 kts 354°
2026-04-16 15:03 -54.45184 -67.74733 22213 ft 349 kts 354°
2026-04-16 15:04 -54.42740 -67.74729 22693 ft 351 kts 354°
2026-04-16 15:04 -54.40294 -67.74723 23251 ft 350 kts 354°
2026-04-16 15:04 -54.37880 -67.74718 23738 ft 351 kts 353°
2026-04-16 15:04 -54.35421 -67.74714 24153 ft 354 kts 353°
2026-04-16 15:05 -54.32943 -67.74710 24574 ft 356 kts 353°
2026-04-16 15:05 -54.30454 -67.74706 24979 ft 358 kts 353°
2026-04-16 15:05 -54.27987 -67.74704 25364 ft 360 kts 353°
2026-04-16 15:05 -54.25458 -67.74699 25745 ft 362 kts 353°
2026-04-16 15:06 -54.22922 -67.74693 26093 ft 364 kts 353°
2026-04-16 15:06 -54.20410 -67.74688 26404 ft 366 kts 353°
2026-04-16 15:06 -54.17839 -67.74682 26739 ft 368 kts 353°
2026-04-16 15:06 -54.15275 -67.74677 27060 ft 370 kts 353°
2026-04-16 15:07 -54.12717 -67.74671 27389 ft 371 kts 353°
2026-04-16 15:07 -54.10123 -67.74667 27707 ft 373 kts 353°
2026-04-16 15:07 -54.07519 -67.74662 28032 ft 374 kts 353°
2026-04-16 15:07 -54.04900 -67.74656 28321 ft 376 kts 353°
2026-04-16 15:08 -54.02277 -67.74652 28582 ft 378 kts 353°
2026-04-16 15:08 -53.99624 -67.74646 28861 ft 380 kts 353°
2026-04-16 15:08 -53.97005 -67.74640 29152 ft 381 kts 353°
2026-04-16 15:08 -53.94357 -67.74633 29652 ft 376 kts 353°
2026-04-16 15:09 -53.91760 -67.74622 30230 ft 370 kts 353°
2026-04-16 15:09 -53.89182 -67.74617 30537 ft 371 kts 353°
2026-04-16 15:09 -53.86592 -67.74616 30760 ft 373 kts 353°
2026-04-16 15:09 -53.83986 -67.74614 31029 ft 374 kts 353°
2026-04-16 15:10 -53.81412 -67.74608 31380 ft 372 kts 353°
2026-04-16 15:10 -53.78829 -67.74688 31731 ft 366 kts 348°
2026-04-16 15:10 -53.76358 -67.75521 32032 ft 359 kts 339°
2026-04-16 15:10 -53.74053 -67.77116 32308 ft 357 kts 333°
2026-04-16 15:11 -53.71811 -67.78856 32575 ft 357 kts 333°
2026-04-16 15:11 -53.69556 -67.80627 32877 ft 356 kts 333°
2026-04-16 15:11 -53.67341 -67.82364 33179 ft 355 kts 333°
2026-04-16 15:11 -53.65099 -67.84111 33473 ft 353 kts 333°
2026-04-16 15:12 -53.62856 -67.85849 33718 ft 353 kts 333°
2026-04-16 15:12 -53.60607 -67.87584 33947 ft 354 kts 333°
2026-04-16 15:12 -53.58389 -67.89289 34201 ft 353 kts 333°
2026-04-16 15:12 -53.56152 -67.91004 34398 ft 354 kts 333°
2026-04-16 15:13 -53.53892 -67.92734 34430 ft 359 kts 333°
2026-04-16 15:13 -53.49318 -67.96226 34613 ft 364 kts 333°
2026-04-16 15:13 -53.47009 -67.97984 34814 ft 364 kts 333°
2026-04-16 15:14 -53.44679 -67.99756 35015 ft 364 kts 333°
2026-04-16 15:14 -53.42400 -68.01486 35236 ft 361 kts 333°
2026-04-16 15:14 -53.40122 -68.03213 35306 ft 359 kts 333°
2026-04-16 15:15 -53.35540 -68.06682 35328 ft 362 kts 333°
2026-04-16 15:15 -53.30952 -68.10151 35331 ft 365 kts 333°
2026-04-16 15:16 -53.26315 -68.13649 35330 ft 367 kts 333°
2026-04-16 15:16 -53.21643 -68.17163 35336 ft 367 kts 333°
2026-04-16 15:17 -53.16992 -68.20652 35335 ft 368 kts 333°
2026-04-16 15:17 -53.12316 -68.24153 35337 ft 367 kts 333°
2026-04-16 15:18 -53.07678 -68.27617 35336 ft 367 kts 333°
2026-04-16 15:18 -53.03006 -68.31096 35335 ft 366 kts 333°
2026-04-16 15:19 -52.98371 -68.34541 35347 ft 365 kts 333°
2026-04-16 15:19 -52.93752 -68.37966 35356 ft 364 kts 333°
2026-04-16 15:20 -52.89109 -68.41399 35358 ft 364 kts 333°
2026-04-16 15:20 -52.84473 -68.44824 35361 ft 364 kts 333°
2026-04-16 15:21 -52.79874 -68.48211 35358 ft 364 kts 333°
2026-04-16 15:21 -52.75230 -68.51625 35366 ft 364 kts 333°
2026-04-16 15:22 -52.70612 -68.55012 35370 ft 364 kts 333°
2026-04-16 15:22 -52.65988 -68.58397 35366 ft 365 kts 333°
2026-04-16 15:23 -52.61329 -68.61800 35367 ft 365 kts 333°
2026-04-16 15:23 -52.56695 -68.65181 35367 ft 366 kts 333°
2026-04-16 15:24 -52.52035 -68.68568 35365 ft 366 kts 333°
2026-04-16 15:24 -52.47391 -68.71937 35375 ft 366 kts 333°
2026-04-16 15:25 -52.42705 -68.75330 35374 ft 367 kts 333°
2026-04-16 15:25 -52.38049 -68.78693 35376 ft 368 kts 333°
2026-04-16 15:26 -52.33357 -68.82073 35369 ft 368 kts 333°
2026-04-16 15:26 -52.28687 -68.85431 35378 ft 368 kts 333°
2026-04-16 15:27 -52.23992 -68.88798 35380 ft 368 kts 333°
2026-04-16 15:27 -52.19332 -68.92130 35383 ft 367 kts 333°
2026-04-16 15:28 -52.14639 -68.95480 35384 ft 366 kts 333°
2026-04-16 15:28 -52.09970 -68.98806 35383 ft 365 kts 333°
2026-04-16 15:29 -52.05327 -69.02106 35385 ft 364 kts 333°
2026-04-16 15:29 -52.00701 -69.05385 35387 ft 364 kts 333°
2026-04-16 15:30 -51.96061 -69.08668 35374 ft 363 kts 333°
2026-04-16 15:30 -51.91434 -69.11935 35386 ft 363 kts 334°
2026-04-16 15:31 -51.86803 -69.15195 35388 ft 363 kts 334°
2026-04-16 15:31 -51.82192 -69.18437 35387 ft 363 kts 334°
2026-04-16 15:32 -51.77535 -69.21703 35382 ft 363 kts 334°
2026-04-16 15:32 -51.72914 -69.24936 35385 ft 364 kts 334°
2026-04-16 15:33 -51.69041 -69.27641 35384 ft 364 kts 334°
2026-04-16 15:33 -51.64453 -69.31034 35377 ft 362 kts 327°
2026-04-16 15:34 -51.59810 -69.36750 35382 ft 362 kts 318°
2026-04-16 15:34 -51.57045 -69.41840 35392 ft 363 kts 310°
2026-04-16 15:35 -51.54028 -69.48297 35285 ft 358 kts 310°
2026-04-16 15:35 -51.52545 -69.51486 35008 ft 352 kts 310°
2026-04-16 15:35 -51.51086 -69.54612 34746 ft 346 kts 310°
2026-04-16 15:35 -51.49649 -69.57679 34496 ft 342 kts 310°
2026-04-16 15:36 -51.48220 -69.60717 34250 ft 340 kts 310°
2026-04-16 15:36 -51.46814 -69.63699 34002 ft 338 kts 310°
2026-04-16 15:36 -51.45393 -69.66706 33754 ft 337 kts 310°
2026-04-16 15:36 -51.43978 -69.69693 33503 ft 335 kts 310°
2026-04-16 15:37 -51.42566 -69.72673 33250 ft 334 kts 310°
2026-04-16 15:37 -51.41176 -69.75602 33007 ft 333 kts 311°
2026-04-16 15:37 -51.39778 -69.78547 32686 ft 329 kts 311°
2026-04-16 15:37 -51.38401 -69.81446 32323 ft 325 kts 311°
2026-04-16 15:38 -51.37040 -69.84305 31926 ft 321 kts 311°
2026-04-16 15:38 -51.35690 -69.87139 31546 ft 318 kts 311°
2026-04-16 15:38 -51.34351 -69.89945 31202 ft 314 kts 311°
2026-04-16 15:38 -51.33035 -69.92701 30967 ft 313 kts 311°
2026-04-16 15:39 -51.31698 -69.95490 30744 ft 327 kts 311°
2026-04-16 15:39 -51.30272 -69.98458 30511 ft 341 kts 311°
2026-04-16 15:39 -51.28817 -70.01489 30277 ft 354 kts 311°
2026-04-16 15:39 -51.27296 -70.04657 30034 ft 362 kts 311°
2026-04-16 15:40 -51.25758 -70.07863 29639 ft 359 kts 311°
2026-04-16 15:40 -51.24243 -70.11022 29192 ft 354 kts 311°
2026-04-16 15:40 -51.22773 -70.14082 28733 ft 350 kts 311°
2026-04-16 15:40 -51.21298 -70.17148 28253 ft 347 kts 311°
2026-04-16 15:41 -51.19831 -70.20190 27771 ft 344 kts 311°
2026-04-16 15:41 -51.18374 -70.23204 27304 ft 341 kts 311°
2026-04-16 15:41 -51.16927 -70.26195 26833 ft 338 kts 311°
2026-04-16 15:41 -51.15488 -70.29166 26361 ft 336 kts 312°
2026-04-16 15:42 -51.14078 -70.32074 25896 ft 334 kts 312°
2026-04-16 15:42 -51.12657 -70.35002 25439 ft 331 kts 312°
2026-04-16 15:42 -51.11269 -70.37860 24987 ft 329 kts 312°
2026-04-16 15:42 -51.09870 -70.40736 24536 ft 328 kts 312°
2026-04-16 15:43 -51.08473 -70.43605 24088 ft 326 kts 312°
2026-04-16 15:43 -51.07100 -70.46421 23636 ft 324 kts 312°
2026-04-16 15:43 -51.05716 -70.49253 23196 ft 322 kts 312°
2026-04-16 15:43 -51.04287 -70.51970 22621 ft 317 kts 315°
2026-04-16 15:44 -51.02815 -70.54550 21776 ft 318 kts 316°
2026-04-16 15:44 -51.01309 -70.57136 21056 ft 319 kts 316°
2026-04-16 15:44 -50.99801 -70.59729 20566 ft 318 kts 315°
2026-04-16 15:44 -50.98310 -70.62310 20132 ft 315 kts 315°
2026-04-16 15:45 -50.96836 -70.64870 19711 ft 313 kts 315°
2026-04-16 15:45 -50.95387 -70.67391 19309 ft 310 kts 315°
2026-04-16 15:45 -50.93930 -70.69931 18918 ft 307 kts 315°
2026-04-16 15:45 -50.92513 -70.72398 18513 ft 305 kts 315°
2026-04-16 15:46 -50.91084 -70.74882 18117 ft 303 kts 315°
2026-04-16 15:46 -50.89680 -70.77322 17717 ft 301 kts 315°
2026-04-16 15:46 -50.88259 -70.79782 17171 ft 303 kts 314°
2026-04-16 15:46 -50.86862 -70.82195 16751 ft 301 kts 314°
2026-04-16 15:47 -50.85445 -70.84642 16333 ft 300 kts 314°
2026-04-16 15:47 -50.84038 -70.87069 15942 ft 298 kts 314°
2026-04-16 15:47 -50.82637 -70.89485 15547 ft 296 kts 314°
2026-04-16 15:47 -50.81268 -70.91843 15241 ft 292 kts 314°
2026-04-16 15:48 -50.79895 -70.94198 14861 ft 290 kts 314°
2026-04-16 15:48 -50.78542 -70.96528 14492 ft 289 kts 313°
2026-04-16 15:48 -50.77184 -70.98863 14119 ft 286 kts 313°
2026-04-16 15:48 -50.75828 -71.01190 13733 ft 286 kts 313°
2026-04-16 15:49 -50.74482 -71.03501 13353 ft 285 kts 313°
2026-04-16 15:49 -50.73153 -71.05777 12981 ft 284 kts 313°
2026-04-16 15:49 -50.71810 -71.08077 12602 ft 283 kts 313°
2026-04-16 15:49 -50.70491 -71.10333 12226 ft 282 kts 312°
2026-04-16 15:50 -50.69148 -71.12627 11848 ft 282 kts 312°
2026-04-16 15:50 -50.67814 -71.14905 11467 ft 282 kts 312°
2026-04-16 15:50 -50.66499 -71.17148 11089 ft 282 kts 312°
2026-04-16 15:50 -50.65165 -71.19420 10706 ft 282 kts 312°
2026-04-16 15:51 -50.63826 -71.21704 10308 ft 283 kts 312°
2026-04-16 15:51 -50.62504 -71.23955 9927 ft 283 kts 312°
2026-04-16 15:51 -50.61176 -71.26213 9772 ft 276 kts 312°
2026-04-16 15:51 -50.59884 -71.28406 9621 ft 269 kts 312°
2026-04-16 15:52 -50.58637 -71.30527 9500 ft 263 kts 312°
2026-04-16 15:52 -50.57406 -71.32615 9385 ft 256 kts 312°
2026-04-16 15:52 -50.56191 -71.34669 9091 ft 256 kts 312°
2026-04-16 15:52 -50.54971 -71.36734 8805 ft 258 kts 312°
2026-04-16 15:53 -50.53758 -71.38785 8398 ft 262 kts 312°
2026-04-16 15:53 -50.52493 -71.40926 7936 ft 268 kts 312°
2026-04-16 15:53 -50.51210 -71.43092 7564 ft 270 kts 312°
2026-04-16 15:53 -50.49922 -71.45264 7233 ft 271 kts 313°
2026-04-16 15:54 -50.48635 -71.47433 6928 ft 271 kts 313°
2026-04-16 15:54 -50.47376 -71.49554 6658 ft 264 kts 313°
2026-04-16 15:54 -50.46149 -71.51619 6388 ft 252 kts 313°
2026-04-16 15:54 -50.44961 -71.53619 6142 ft 247 kts 313°
2026-04-16 15:55 -50.43828 -71.55522 6037 ft 238 kts 313°
2026-04-16 15:55 -50.42716 -71.57389 6000 ft 228 kts 313°
2026-04-16 15:55 -50.41635 -71.59200 6005 ft 224 kts 313°
2026-04-16 15:55 -50.40594 -71.60945 5990 ft 219 kts 314°
2026-04-16 15:56 -50.39541 -71.62709 5725 ft 221 kts 313°
2026-04-16 15:56 -50.38489 -71.64471 5517 ft 219 kts 313°
2026-04-16 15:56 -50.37460 -71.66196 5332 ft 218 kts 314°
2026-04-16 15:56 -50.36418 -71.67941 5138 ft 220 kts 314°
2026-04-16 15:57 -50.35345 -71.69653 4908 ft 219 kts 322°
2026-04-16 15:57 -50.34027 -71.70784 4727 ft 217 kts 334°
2026-04-16 15:57 -50.32653 -71.71763 4516 ft 215 kts 334°
2026-04-16 15:57 -50.31305 -71.72726 4325 ft 211 kts 334°
2026-04-16 15:58 -50.29995 -71.73673 4136 ft 208 kts 334°
2026-04-16 15:58 -50.28681 -71.74627 3938 ft 207 kts 334°
2026-04-16 15:58 -50.27401 -71.75586 3768 ft 199 kts 327°
2026-04-16 15:58 -50.26583 -71.77193 3564 ft 191 kts 284°
2026-04-16 15:59 -50.26634 -71.81129 3267 ft 177 kts 270°
2026-04-16 15:59 -50.26728 -71.83045 3175 ft 175 kts 269°
2026-04-16 15:59 -50.26833 -71.84929 2945 ft 170 kts 268°
2026-04-16 16:00 -50.26938 -71.86724 2736 ft 163 kts 268°
2026-04-16 16:00 -50.27037 -71.88459 2511 ft 159 kts 268°
2026-04-16 16:00 -50.27136 -71.90157 2359 ft 155 kts 267°
2026-04-16 16:00 -50.27233 -71.91851 2128 ft 155 kts 266°
2026-04-16 16:01 -50.27330 -71.93518 1910 ft 153 kts 266°
2026-04-16 16:01 -50.27426 -71.95171 1707 ft 151 kts 265°
2026-04-16 16:01 -50.27522 -71.96779 1498 ft 147 kts 264°
2026-04-16 16:01 -50.27624 -71.98356 1297 ft 144 kts 265°
2026-04-16 16:02 -50.27706 -71.99892 1122 ft 140 kts 265°
2026-04-16 16:02 -50.27789 -72.01406 978 ft 142 kts 265°
2026-04-16 16:02 -50.27881 -72.02961 774 ft 144 kts 265°
2026-04-16 16:02 -50.27970 -72.04489 645 ft 136 kts 265°
2026-04-16 16:03 -50.28042 -72.05706 640 ft 81 kts 265°
2026-04-16 16:03 -50.28092 -72.06205 641 ft 20 kts 213°
2026-04-16 16:03 -50.28181 -72.06358 641 ft 19 kts 230°
2026-04-16 16:03 -50.28296 -72.06363 640 ft 18 kts 135°
2026-04-16 16:04 -50.28306 -72.06177 640 ft 17 kts 84°
2026-04-16 16:04 -50.28294 -72.05994 642 ft 17 kts 85°
2026-04-16 16:04 -50.28284 -72.05817 640 ft 16 kts 85°
2026-04-16 16:04 -50.28275 -72.05647 640 ft 15 kts 85°
2026-04-16 16:05 -50.28264 -72.05484 640 ft 15 kts 83°
2026-04-16 16:05 -50.28254 -72.05328 640 ft 14 kts 85°
2026-04-16 16:05 -50.28278 -72.05242 640 ft 1 kts 164°
2026-04-16 16:05 -50.28279 -72.05242 640 ft 0 kts 166°
2026-04-16 16:06 -50.28289 -72.05249 640 ft 4 kts 214°
2026-04-16 16:06 -50.28315 -72.05294 640 ft 2 kts 231°
2026-04-16 16:06 -50.28323 -72.05311 640 ft 2 kts 232°
2026-04-16 16:06 -50.28325 -72.05315 640 ft 0 kts 231°